Concordia, KS

9:09 PM CST on February 09, 2016 (GMT -0600)
Blosser Municipal

Weather History for KCNK - August, 2013

Change the Weather History Date:

Friday, August 23, 2013

  Actual Average Record
Temperature  
Mean Temperature 78 °F 76 °F  
Max Temperature 87 °F 88 °F 105 °F (1936)
Min Temperature 68 °F 65 °F 41 °F (1891)
Degree Days  
Heating Degree Days 0 0  
Month to date heating degree days 0 0  
Since 1 June heating degree days 22 13  
Since 1 July heating degree days 7 0  
Cooling Degree Days 13 11  
Month to date cooling degree days 189 294  
Year to date cooling degree days 941 1084  
Since 1 June cooling degree days 838 995  
Growing Degree Days 28 (Base 50)    
Moisture  
Dew Point 69 °F    
Average Humidity 76    
Maximum Humidity 93    
Minimum Humidity 59    
Precipitation  
Precipitation 0.00 in 0.10 in 2.46 in (1941)
Month to date precipitation 6.51 2.38  
Year to date precipitation 23.50 20.34  
Snow  
Snow 0.00 in 0.00 in T in (1941)
Month to date snowfall 0.0 0.0  
Year to date snowfall 20.3 13.7  
Since 1 July snowfall 0.0 0.0  
Snow Depth 0.00 in    
Sea Level Pressure  
Sea Level Pressure 29.98 in    
Wind  
Wind Speed 10 mph (SE)    
Max Wind Speed 20 mph    
Max Gust Speed 24 mph    
Visibility 9 miles    
Events      
T = Trace of Precipitation, MM = Missing Value Source: NWS Daily Summary

Daily Weather History Graph

Daily Weather History Graph

Search for Another Location

Airport or City:

Trip Planner

Search our weather history database for the weather conditions in past years. The results will help you decide how hot, cold, wet, or windy it might be!

Date:

Astronomy

Aug. 23, 2013 Rise Set
Actual Time 6:50 AM CDT 8:14 PM CDT
Civil Twilight 6:22 AM CDT 8:42 PM CDT
Nautical Twilight 5:48 AM CDT 9:16 PM CDT
Astronomical Twilight 5:13 AM CDT 9:52 PM CDT
Moon 9:35 PM CDT (8/23) 9:46 AM CDT (8/23)
Length of Visible Light 14h 20m
Length of Day
13h 24m
Waning Gibbous, 91% of the Moon is Illuminated
Aug 23
Waning Gibbous
Aug 28
Last Quarter
Sep 5
New
Sep 12
First Quarter
Sep 19
Full

Hourly Weather History & Observations

Time (CDT) Temp. Heat Index Dew Point Humidity Pressure Visibility Wind Dir Wind Speed Gust Speed Precip Events Conditions
12:55 AM 73.0 °F - 66.9 °F 81% 30.00 in 10.0 mi South 10.4 mph - N/A   Clear
1:55 AM 73.0 °F - 66.9 °F 81% 30.01 in 10.0 mi South 9.2 mph - N/A   Clear
2:55 AM 73.0 °F - 66.9 °F 81% 30.01 in 10.0 mi SSE 9.2 mph - N/A   Clear
3:55 AM 72.0 °F - 66.9 °F 84% 30.01 in 10.0 mi SSE 8.1 mph - N/A   Clear
4:55 AM 70.0 °F - 66.9 °F 90% 30.00 in 10.0 mi SSE 5.8 mph - N/A   Clear
5:55 AM 70.0 °F - 66.9 °F 90% 30.01 in 10.0 mi SSE 5.8 mph - N/A   Clear
6:55 AM 68.0 °F - 66.0 °F 93% 30.02 in 6.0 mi Calm Calm - N/A   Clear
7:55 AM 69.1 °F - 66.9 °F 93% 30.03 in 6.0 mi Calm Calm - N/A   Clear
8:55 AM 73.0 °F - 69.1 °F 87% 30.03 in 7.0 mi ESE 3.5 mph - N/A   Clear
9:55 AM 79.0 °F - 70.0 °F 74% 30.02 in 10.0 mi ESE 6.9 mph - N/A   Clear
10:55 AM 81.0 °F 84.4 °F 70.0 °F 69% 30.01 in 10.0 mi SSE 11.5 mph - N/A   Clear
11:55 AM 82.0 °F 85.9 °F 70.0 °F 67% 29.99 in 8.0 mi SSE 12.7 mph - N/A   Clear
12:55 PM 82.9 °F 87.5 °F 71.1 °F 67% 29.97 in 9.0 mi SE 12.7 mph - N/A   Clear
1:55 PM 84.0 °F 89.0 °F 71.1 °F 65% 29.96 in 10.0 mi SSE 17.3 mph - N/A   Clear
2:55 PM 84.0 °F 89.0 °F 71.1 °F 65% 29.96 in 10.0 mi SE 10.4 mph - N/A   Partly Cloudy
3:55 PM 87.1 °F 92.8 °F 71.1 °F 59% 29.95 in 10.0 mi SSE 13.8 mph - N/A   Clear
4:55 PM 87.1 °F 93.6 °F 72.0 °F 61% 29.94 in 10.0 mi SE 16.1 mph 24.2 mph N/A   Clear
5:55 PM 84.9 °F 90.1 °F 71.1 °F 63% 29.93 in 10.0 mi SE 13.8 mph 24.2 mph N/A   Clear
6:55 PM 84.0 °F 89.0 °F 71.1 °F 65% 29.92 in 10.0 mi SE 12.7 mph - N/A   Clear
7:55 PM 82.0 °F 86.3 °F 71.1 °F 69% 29.91 in 10.0 mi SE 12.7 mph - N/A   Clear
8:55 PM 79.0 °F - 71.1 °F 77% 29.92 in 10.0 mi SE 10.4 mph - N/A   Clear
9:55 PM 80.1 °F 83.6 °F 71.1 °F 74% 29.94 in 10.0 mi SSE 12.7 mph - N/A   Clear
10:55 PM 79.0 °F - 70.0 °F 74% 29.94 in 10.0 mi SSE 16.1 mph - N/A   Clear
11:55 PM 77.0 °F - 71.1 °F 82% 29.95 in 10.0 mi SSE 12.7 mph - N/A   Clear